Terminal Aerodrome Forecast
Issued by NWS

Home | Current Version | Previous Version | Text Only | Print | Product List | Glossary On
Versions: 1 2 3 4 5 6 7 8 9 10 11 12 13 14 15 16 17 18 19 20 21 22 23 24 25 26 27 28 29 30 31 32 33 34 35 36 37 38 39 40 41 42 43 44 45 46 47 48 49 50
000
FTUS43 KDMX 070540
TAFMCW
TAF
KMCW 070540Z 0706/0806 21012KT P6SM OVC100
     FM070800 27016KT P6SM BKN120
     FM071600 27017G24KT P6SM FEW050 SCT200
     FM072300 30018G30KT 5SM BLSN OVC030
     FM080400 32022G32KT 2SM -SHSN BLSN OVC020=

USA.gov is the U.S. government's official web portal to all federal, state and local government web resources and services.